Location: Central Falls
(41.8900°N, 71.3929°W)
Time: 08:28:01
(UTC+00:00)

Altair - Pass Details

Date: 09 December 2023
Orbit: 1501 x 1682 km, 47.2° (Epoch: 29 February)

Event Time Altitude Azimuth Distance (km) Brightness Sun altitude
Rises 11:17:50 0° 224° (SW) 4,879 9.9 -8.0°
Reaches altitude 10° 11:21:03 10° 221° (SW) 3,874 9.4 -7.5°
Maximum altitude 11:30:43 62° 144° (SE) 1,762 8.2 -5.8°
Drops below altitude 10° 11:40:02 10° 66° (ENE) 3,745 10.1 -4.3°
Sets 11:43:05 0° 63° (ENE) 4,709 10.6 -3.8°
